Location: Poughquag
(41.6090°N, 73.6820°W)
Time: 03:30:27
(UTC-04:00)

Transit 4A - Pass Details

Date: 07 June 2020
Orbit: 866 x 978 km, 66.8° (Epoch: 06 July)

Event Time Altitude Azimuth Distance (km) Brightness Sun altitude
Rises 09:50:45 0° 328° (NNW) 3,580 10.7 47.6°
Reaches altitude 10° 09:53:15 10° 327° (NNW) 2,650 10.1 48.1°
Maximum altitude 09:59:26 78° 243° (WSW) 978 8.8 49.2°
Drops below altitude 10° 10:05:45 10° 158° (SSE) 2,700 10.8 50.3°
Sets 10:08:19 0° 157° (SSE) 3,652 11.3 50.8°
